Starlink 31989

operational
NORAD ID: 59959 Int'l Des: 2024-107 Owner: SPXS Country: US Constellation: starlink
LEOCIRCULAR

About Starlink 31989

Description loading...

Live Position

Loading 3D Globe...

Upcoming Passes

Altitude History

Altitude vs Time

uPlot chart will show altitude changes over time

Two-Line Element Set

1 59959U 24107Q 25354.49870189 .00001128 00000-0 50221-4 0 9992
2 59959 53.1598 73.2482 0001320 68.4792 291.6350 15.30192646 87679
Epoch: Dec 20, 2025 • Age: 7 hours

Current Status

Altitude 491.4 km
Velocity 7.62 km/s
Sub-Earth Point -45.21°S, 78.55°W
Launch Date Jun 5, 2024
Age 1.5 years
Type internet

Technical Details

Classification Payload
Mass 730.00 kg
Dry Mass 700.00 kg
Total Mass 730.00 kg
Length 0.30 m
Diameter 4.10 m
Span 29.00 m
Shape Box + pan
Manufacturer SPXS
Bus Type Starlink V2M
Phase Status In Orbit
Owner/State SPXS/US

Large Constellations

Loading constellations...